Location: Csohesd
(46.2500°N, 22.6167°E)
Time: 12:31:26
(UTC+00:00)

Meteor 1-4 Rocket - Pass Details

Date: 21 October 2021
Orbit: 447 x 496 km, 81.2° (Epoch: 06 December)

Event Time Altitude Azimuth Distance (km) Brightness Sun altitude
Rises 16:47:36 0° 165° (SSE) 2,477 6.0 -13.7°
Reaches altitude 10° 16:49:51 10° 153° (SSE) 1,600 4.9 -14.0°
Enters shadow 16:52:22 27° 109° (ESE) 920 3.4 -14.5°
